Location: Waco, TX
(31.5480°N, 97.1670°W)
Time: 15:03:20
(UTC-05:00)

ISS - Pass Details

Date: 22 August 2019
Orbit: 410 x 421 km, 51.6° (Epoch: 22 August)

Event Time Altitude Azimuth Distance (km) Brightness Sun altitude
Rises 07:56:12 0° 240° (WSW) 2,335 -0.5 11.3°
Reaches altitude 10° 07:58:22 10° 249° (WSW) 1,478 -1.5 11.8°
Maximum altitude 08:01:29 38° 319° (NW) 654 -2.9 12.4°
Drops below altitude 10° 08:04:38 10° 29° (NNE) 1,490 -0.4 13.1°
Sets 08:06:50 0° 38° (NE) 2,358 0.7 13.5°
